Starlink 33692

operational
NORAD ID: 63408 Int'l Des: 2025-065 Owner: SPXS Country: US Constellation: starlink
LEOCIRCULAR

Über Starlink 33692

Beschreibung wird geladen...

Live-Position

3D-Globus wird geladen...

Nächste Überflüge

Höhenverlauf

Altitude vs Time

uPlot chart will show altitude changes over time

Zweizeiliger Elementsatz

1 63408U 25065K 25351.48583459 .00010565 00000-0 39288-3 0 9991
2 63408 43.0004 215.1485 0000987 272.4404 87.6335 15.27581515 40227
Epoch: 17. Dez. 2025 • Age: 20 hours

Aktueller Status

Höhe 489.3 km
Geschwindigkeit 7.62 km/s
Subsatellitenpunkt -26.48°S, 136.37°W
Startdatum 31. März 2025
Alter 0.7 years
Typ internet

Technische Details

Klassifizierung Payload
Masse 575.00 kg
Trockenmasse 530.00 kg
Gesamtmasse 575.00 kg
Länge 0.30 m
Durchmesser 4.10 m
Spannweite 29.00 m
Form Box + pan
Hersteller SPXS
Bus-Typ Starlink V2MO
Phasenstatus In Orbit
Besitzer/Staat SPXS/US

Große Konstellationen

Loading constellations...